Theta_e
348 355 358 355 355 355 357 358 361 359 357 356 354 353 352 352 353 353 351 352 353 353 353 353 353 352 352 351 350 349 349 348 348 346 345 344 343 343 342 341 344 342 346
352 356 358 355 354 355 355 357 357 356 356 354 353 352 352 353 353 352 351 353 354 354 354 354 353 353 352 351 350 350 348 346 344 345 346 345 345 343 344 344 345 342 345
351 357 355 355 354 354 355 355 355 355 354 353 353 352 353 353 353 352 353 354 354 354 354 354 353 353 352 351 350 350 348 346 345 344 347 346 342 343 342 342 342 343 342
353 356 353 356 356 354 355 355 355 354 353 352 353 353 353 353 352 352 353 353 353 354 353 353 352 351 349 348 346 345 345 347 349 351 349 346 343 344 342 340 339 339 339
352 355 357 356 356 354 354 354 354 353 352 353 354 353 353 353 352 353 354 354 353 352 351 350 348 347 346 345 345 346 347 348 350 351 351 347 347 344 343 341 340 339 338
350 355 356 357 355 353 354 353 353 353 353 353 353 353 353 353 353 353 353 352 352 350 349 348 347 347 347 347 347 348 350 352 352 349 351 348 349 345 344 341 339 339 337
350 353 355 356 354 353 354 353 353 353 353 353 354 353 354 353 353 353 353 352 349 348 347 346 345 345 345 347 348 349 350 352 349 347 350 351 350 350 347 345 341 339 340
351 351 354 356 356 355 354 353 354 355 355 354 354 354 354 353 353 353 352 351 349 348 346 346 345 347 348 349 350 351 351 352 349 348 347 349 348 349 348 348 346 345 343
351 351 351 351 355 354 355 354 354 354 354 354 353 354 353 353 353 352 351 350 349 348 347 347 348 350 351 352 353 353 353 354 351 352 350 350 351 349 348 349 348 346 345
348 350 349 350 349 349 352 354 354 354 354 353 354 354 353 353 353 352 352 351 350 350 350 350 351 352 353 355 356 356 354 355 350 353 351 352 353 349 348 349 350 351 347
343 348 348 346 347 346 346 352 354 354 354 354 353 354 352 349 350 352 352 352 350 350 351 352 353 355 357 357 357 357 357 351 349 351 348 356 353 351 350 349 350 352 350
339 344 346 346 346 345 346 351 349 349 350 350 349 352 350 349 349 347 353 352 350 351 354 355 357 357 357 354 354 357 356 352 345 348 352 359 355 354 354 354 352 352 354
339 342 345 347 349 345 345 349 347 347 347 349 351 354 350 347 347 343 342 347 347 348 351 351 355 356 355 351 348 349 348 346 345 347 355 359 355 353 354 356 355 356 355
338 341 344 348 351 349 345 347 347 346 347 348 350 354 352 350 348 346 343 344 348 349 350 352 348 350 351 351 350 348 347 347 345 346 351 358 353 351 351 352 353 356 358
337 340 343 348 353 352 350 347 347 346 347 348 350 352 349 348 347 346 345 344 344 346 349 348 349 349 350 349 348 349 347 349 348 347 347 359 353 352 351 349 349 350 353
340 341 343 347 355 353 354 353 348 349 348 348 348 348 351 350 350 346 348 348 346 347 349 350 352 352 351 351 352 355 352 352 351 352 349 351 356 353 350 348 346 347 349
343 345 345 348 354 356 354 353 351 348 346 348 349 352 352 354 354 354 351 351 353 355 354 354 353 353 353 352 355 352 351 354 353 354 352 351 352 353 351 348 345 343 343
346 350 350 347 350 355 355 353 348 347 346 349 351 351 354 354 357 358 353 353 355 356 355 353 355 352 350 350 349 349 348 351 350 354 352 351 349 348 351 350 346 344 344
349 350 354 354 349 353 358 352 353 357 349 350 353 352 356 355 355 356 354 355 361 356 355 353 352 358 350 350 347 349 348 347 349 347 348 348 348 345 343 348 348 347 348
349 355 358 356 362 361 355 354 349 346 348 349 352 353 357 357 357 357 357 362 360 355 353 353 354 353 349 349 344 343 346 346 345 343 343 342 341 340 340 342 343 343 350
355 357 358 359 363 358 352 348 346 344 347 346 350 357 360 361 361 362 359 359 357 358 355 355 351 352 345 351 339 336 333 343 343 341 338 337 337 334 335 339 340 343 345
357 360 362 361 365 362 356 356 351 349 348 351 355 360 361 362 362 359 358 356 356 351 352 349 348 343 342 340 332 326 322 325 339 336 335 334 335 331 332 336 342 343 344
355 360 359 364 365 363 361 359 358 354 354 351 355 357 359 358 358 358 357 354 354 352 346 345 341 338 330 332 337 326 320 318 321 330 333 327 333 327 330 332 341 340 341
351 354 360 364 367 365 367 357 358 347 346 352 354 355 354 355 354 354 354 352 349 344 342 336 334 334 331 325 325 328 331 328 320 317 323 327 328 328 333 327 331 339 337
348 351 357 365 367 367 366 362 356 353 351 351 352 355 356 352 351 347 348 345 342 336 338 335 333 332 329 325 323 322 328 322 328 318 312 316 321 322 323 323 330 333 336
340 350 354 361 366 366 366 363 363 358 357 350 353 347 347 345 343 342 340 339 337 335 331 330 331 331 330 328 326 323 319 317 317 315 314 317 316 318 319 326 327 329 332
Wind_Speed
18 18 16 14 12 12 12 12 14 15 13 12 12 12 13 12 12 11 11 12 12 12 13 13 13 13 13 14 13 13 11 10 9 9 10 12 11 9 8 8 9 14 7
21 17 15 14 14 13 13 12 12 12 11 12 12 12 13 12 13 12 11 11 12 12 11 12 11 11 11 11 11 11 10 7 4 4 8 11 11 8 8 11 16 11 10
20 18 16 14 14 14 14 13 13 12 11 11 12 12 13 12 12 11 11 10 11 10 10 10 9 8 8 8 7 6 6 2 4 5 7 10 11 7 6 7 8 8 7
19 16 16 14 13 14 12 13 12 12 11 12 12 12 12 12 11 10 10 9 9 8 8 7 7 6 6 4 4 3 3 5 8 12 8 2 11 10 6 4 4 3 2
17 17 17 15 13 14 14 13 12 12 12 12 12 12 11 11 10 9 8 8 7 6 6 5 4 4 3 3 4 5 7 9 12 12 12 5 7 10 7 4 4 4 1
18 19 18 16 14 14 14 13 13 13 12 12 12 11 10 10 9 8 7 6 6 5 4 4 3 2 3 4 4 5 8 12 13 12 8 6 2 12 8 4 1 3 2
18 19 17 16 16 15 15 14 14 13 12 12 11 11 10 10 8 7 6 6 4 4 3 2 1 2 4 5 6 7 9 15 14 11 8 5 10 12 9 7 5 4 5
18 17 17 15 15 14 15 14 14 12 12 12 11 9 9 8 7 6 5 5 4 3 2 2 3 4 6 7 8 9 9 13 14 6 2 4 15 13 10 9 8 8 8
18 18 16 15 14 14 14 13 13 12 11 11 10 9 8 7 7 6 5 5 4 4 4 5 5 6 7 8 10 11 11 16 13 9 8 5 13 12 11 11 11 10 11
17 18 17 16 16 14 13 13 13 12 11 10 9 9 8 7 7 8 7 10 8 7 7 7 8 9 10 11 13 13 15 19 14 13 8 7 14 11 10 11 12 13 13
14 17 17 17 16 15 15 13 12 11 11 10 9 9 9 9 10 12 8 11 9 8 9 10 10 12 13 16 18 18 18 10 11 7 5 14 13 9 9 11 13 14 15
16 17 16 16 16 15 12 14 12 11 10 10 10 11 9 10 6 4 6 11 10 11 12 15 15 16 15 12 10 17 9 10 8 4 6 13 11 6 7 11 13 15 15
17 14 16 12 12 13 12 10 8 8 8 8 10 9 9 5 6 6 6 8 8 14 9 13 14 11 15 6 10 5 8 8 6 4 9 12 10 6 5 10 12 13 16
16 15 14 14 12 10 8 9 9 8 8 7 8 9 6 5 4 6 5 5 4 6 7 4 7 7 7 10 10 10 10 9 8 8 4 11 10 7 4 8 9 10 13
15 15 14 15 12 10 8 8 7 7 7 8 7 9 8 7 5 5 5 5 6 6 5 6 7 6 7 10 9 6 9 10 10 7 7 10 9 9 7 6 8 10 11
14 16 15 16 14 13 10 8 7 7 7 6 7 7 9 6 4 6 5 6 5 6 6 7 6 8 8 9 6 5 6 9 9 8 7 5 11 10 10 6 5 6 8
14 15 15 15 16 14 13 10 8 8 8 8 7 8 8 8 5 6 6 5 5 5 6 7 9 7 4 5 5 5 8 7 3 4 8 8 4 11 8 9 5 4 7
16 15 16 15 18 15 13 11 9 8 8 8 7 7 9 9 7 7 6 6 6 4 7 7 5 5 8 6 8 8 8 9 10 7 7 7 9 9 5 9 7 8 9
17 17 16 15 17 17 13 11 11 10 8 8 7 7 10 9 9 8 7 7 3 6 8 6 7 3 7 5 9 5 6 7 7 7 7 6 9 6 7 4 11 13 10
18 16 16 14 13 16 12 10 10 9 10 9 8 7 9 8 9 8 8 4 4 7 5 5 6 6 6 5 10 10 8 5 6 6 3 7 6 8 9 8 8 8 11
18 17 18 17 16 13 13 13 11 11 10 10 8 9 7 9 8 7 4 3 4 4 3 4 5 5 6 2 7 8 7 6 5 4 4 5 6 8 10 7 7 8 8
18 19 17 18 17 15 12 10 10 10 11 9 8 8 9 7 7 4 4 4 4 2 1 2 4 6 7 5 7 9 7 4 5 1 2 5 9 8 8 8 8 10 9
18 18 18 17 17 17 15 10 8 9 7 10 8 6 5 6 6 6 6 5 4 5 4 1 3 2 6 3 2 5 6 6 9 2 3 4 5 8 7 8 6 7 7
21 18 18 17 17 17 16 14 14 12 12 10 9 10 9 10 10 8 7 6 4 2 4 4 4 5 4 4 5 3 1 3 6 6 8 4 7 8 7 7 6 3 6
21 20 17 17 17 16 17 15 14 14 12 11 11 14 10 10 10 10 9 8 6 5 5 5 3 4 1 4 4 6 6 6 3 6 9 9 8 7 9 8 6 7 6
20 19 18 16 17 18 17 19 17 18 15 13 12 11 10 10 9 10 10 8 6 7 6 6 4 5 4 4 5 3 5 6 7 7 8 8 10 8 9 5 6 8 6
Wind_Direction
118 126 125 131 133 129 125 123 120 128 134 130 126 121 116 112 114 107 105 102 100 98 96 93 90 87 85 80 76 70 68 62 68 88 93 93 81 68 42 33 309 70 57
117 130 127 136 135 133 132 130 131 136 138 134 126 122 120 119 115 112 111 110 107 104 99 93 87 82 79 79 78 74 64 52 56 127 135 122 94 80 52 39 38 65 47
126 126 139 138 139 140 138 137 138 139 135 132 129 129 128 120 118 116 115 110 107 103 98 93 90 86 79 73 72 68 46 17 295 263 218 259 89 99 78 63 63 63 64
127 142 134 140 142 143 141 139 142 139 138 136 136 133 128 123 119 116 115 109 107 107 102 98 88 79 72 66 53 29 348 292 292 289 274 204 101 125 114 105 97 88 86
137 132 123 142 145 149 148 147 146 143 144 142 137 136 130 124 121 120 116 112 114 110 107 98 86 74 49 21 4 350 321 311 300 285 280 33 104 128 137 155 164 167 71
142 123 136 141 147 152 153 152 149 150 149 142 142 141 135 129 128 127 125 124 123 119 112 98 75 31 9 346 339 329 316 302 295 274 252 119 99 132 150 174 177 131 147
133 123 141 145 151 156 160 155 153 153 150 148 146 146 141 137 138 141 141 137 136 129 120 104 20 323 320 315 316 314 312 304 299 301 134 121 117 143 164 188 198 207 211
127 142 136 149 154 158 160 159 157 155 154 151 152 150 144 147 151 153 154 149 154 160 184 255 289 295 296 299 299 293 292 287 296 306 338 133 141 152 176 201 215 221 222
136 138 150 154 157 161 161 160 161 158 157 154 158 155 158 169 172 171 175 179 184 210 225 249 262 269 276 280 280 281 281 273 274 282 285 96 142 161 185 205 213 223 226
154 144 154 154 161 166 161 166 164 163 163 161 164 168 178 189 188 199 204 201 199 222 239 246 256 262 262 260 255 250 253 259 260 248 223 124 150 172 198 215 226 227 227
168 153 162 165 164 174 158 160 168 170 168 170 176 186 194 209 183 181 167 156 202 226 247 254 254 256 254 250 243 240 239 254 247 235 65 137 148 173 214 226 235 238 233
176 163 163 171 164 173 152 150 180 173 184 191 189 176 221 224 187 289 158 175 207 229 241 242 239 241 249 260 212 228 236 247 283 285 102 139 132 160 231 241 243 245 240
175 172 164 172 163 172 166 164 182 174 185 192 196 191 217 208 202 210 221 201 212 211 236 205 224 230 235 308 313 291 304 291 287 309 120 130 135 150 244 255 258 250 242
172 172 170 168 172 198 173 177 183 188 186 190 194 193 239 221 224 265 246 259 201 196 250 285 268 327 318 272 280 298 297 317 305 334 93 136 147 155 228 269 268 270 264
174 172 182 168 178 196 205 183 196 205 191 191 177 187 223 225 232 236 248 270 289 306 306 280 279 302 300 273 282 324 309 304 291 295 310 153 155 167 190 233 275 281 281
185 172 184 175 174 193 201 199 197 192 179 217 192 202 214 236 222 251 233 250 259 273 282 284 310 334 311 300 303 345 274 282 288 304 292 303 175 189 189 210 253 286 297
186 176 186 186 174 198 193 203 208 189 216 198 210 193 211 205 223 269 254 262 260 252 280 276 260 268 271 336 287 272 303 306 308 310 304 295 174 194 194 208 198 241 281
185 186 189 190 176 188 189 194 204 206 207 203 201 189 204 209 231 206 245 250 264 290 286 280 305 322 319 313 299 294 307 314 307 317 296 324 347 328 245 189 202 234 256
191 186 189 193 185 181 195 197 209 196 214 208 204 199 180 209 216 227 247 256 236 275 274 303 305 327 300 317 302 299 288 281 290 305 312 328 282 313 325 169 213 237 226
191 187 192 191 201 175 183 206 198 200 199 214 207 208 179 209 213 221 243 286 290 264 293 359 337 330 302 321 302 315 277 272 334 300 335 286 323 352 310 318 329 328 208
191 193 191 193 189 182 193 195 199 203 199 208 205 208 203 218 223 212 243 209 248 302 323 328 300 274 296 321 322 299 310 173 192 354 310 330 342 340 302 353 329 6 5
191 195 194 195 189 193 196 199 203 200 195 203 191 184 211 200 177 184 233 171 204 120 270 357 306 316 302 52 331 306 302 311 163 142 1 306 40 320 337 349 0 20 352
200 195 203 201 195 196 201 195 202 201 198 198 180 175 200 175 166 177 187 135 169 253 145 343 357 17 329 319 62 340 325 4 343 116 146 355 351 340 329 333 34 11 352
195 199 200 205 205 197 203 193 197 200 192 193 189 180 169 173 176 169 164 155 191 119 102 120 65 333 347 339 327 42 4 341 343 324 333 324 15 322 341 340 314 3 5
187 195 206 200 204 207 198 219 188 203 191 189 189 141 164 175 163 161 156 151 151 161 108 102 79 28 332 326 357 342 337 306 264 333 315 340 321 336 336 336 358 297 44
194 190 199 199 204 204 199 208 200 195 200 185 173 168 172 173 169 155 151 147 147 119 138 120 107 79 26 21 345 323 351 344 349 333 326 316 331 332 322 302 318 348 33